Location: Bishausen
(51.6334°N, 9.9631°E)
Time: 12:16:34
(UTC+00:00)

Cosmos 1400 Rocket - Pass Details

Date: 23 May 2024
Orbit: 501 x 544 km, 81.2° (Epoch: 18 June)

Event Time Altitude Azimuth Distance (km) Brightness Sun altitude
Exits shadow 00:33:05 27° 229° (SW) 1,075 3.8 -15.8°
Maximum altitude 00:34:54 46° 287° (WNW) 739 3.4 -15.7°
Drops below altitude 10° 00:38:47 10° 2° (N) 1,817 6.7 -15.5°
Sets 00:41:01 0° 9° (N) 2,708 8.0 -15.4°
